Location: Oak Glen
(34.0495°N, 116.9470°E)
Time: 01:19:40
(UTC-07:00)

Vanguard 2 Rocket - All Passes

Search period start: 22 October 2017 00:00
Search period end: 01 November 2017 00:00
Orbit: 555 x 3327 km, 32.9° (Epoch: 21 October)

Date Brightness Start Highest point End Pass type
(mag) Time Alt. Az. Time Alt. Az. Time Alt. Az.
22 Oct - 00:40:56 10° W 00:49:27 67° SSW 01:04:43 10° ESE daylight
22 Oct - 02:54:39 10° W 03:05:23 38° SSW 03:21:25 10° SSE visible
22 Oct - 05:14:40 10° WSW 05:22:07 14° SW 05:30:29 10° SSW visible
22 Oct - 19:18:49 10° SW 19:22:31 30° SSE 19:27:28 10° E daylight
22 Oct - 21:30:01 10° WSW 21:35:11 79° S 21:44:09 10° E daylight
22 Oct - 23:42:04 10° W 23:49:17 74° S 00:02:33 10° ESE daylight
23 Oct - 01:55:01 10° W 02:04:35 45° SSW 02:20:14 10° SE daylight
23 Oct - 04:11:33 10° WSW 04:20:59 20° SW 04:32:52 10° S visible
23 Oct - 18:21:08 10° S 18:23:47 17° SSE 18:26:45 10° ESE daylight
23 Oct - 20:31:28 10° WSW 20:35:56 67° SSE 20:43:02 10° E daylight
23 Oct - 22:43:22 10° W 22:49:27 80° S 23:00:32 10° ESE daylight
24 Oct - 00:55:47 10° W 01:04:07 53° SSW 01:18:38 10° SE daylight
24 Oct - 03:10:26 10° W 03:20:00 27° SSW 03:33:23 10° SSE visible
24 Oct - 19:33:00 10° SW 19:36:57 47° SSE 19:42:25 10° E daylight
24 Oct - 21:44:44 10° W 21:49:54 82° S 21:58:54 10° E daylight
24 Oct - 23:56:51 10° W 00:03:58 61° SSW 00:16:49 10° ESE daylight
25 Oct - 02:10:19 10° W 02:19:15 33° SSW 02:32:58 10° SSE daylight
25 Oct - 04:31:37 10° SW 04:35:43 11° SW 04:40:13 10° SSW visible
25 Oct - 18:34:40 10° SW 18:38:07 29° SSE 18:42:11 10° E daylight
25 Oct - 20:46:08 10° W 20:50:37 79° S 20:57:46 10° E daylight
25 Oct - 22:58:07 10° W 23:04:10 69° S 23:15:04 10° ESE daylight
26 Oct - 01:10:50 10° W 01:18:49 39° SSW 01:31:58 10° SE daylight
26 Oct - 03:27:34 10° WSW 03:34:45 17° SSW 03:43:44 10° S visible
26 Oct - 17:36:36 10° SSW 17:39:18 17° SSE 17:42:03 10° ESE daylight
26 Oct - 19:47:31 10° WSW 19:51:33 66° SSE 19:57:12 10° E daylight
26 Oct - 21:59:28 10° W 22:04:39 77° S 22:13:34 10° ESE daylight
27 Oct - 00:11:45 10° W 00:18:41 46° SSW 00:30:40 10° SE daylight
27 Oct - 02:26:24 10° WSW 02:34:01 22° SSW 02:44:37 10° SSE visible
27 Oct - 16:40:02 10° SSE 16:40:20 10° SSE 16:40:38 10° SSE daylight
27 Oct - 18:48:52 10° WSW 18:52:38 47° SSE 18:57:08 10° E daylight
27 Oct - 21:00:52 10° W 21:05:21 81° S 21:12:30 10° E daylight
27 Oct - 23:12:55 10° W 23:18:53 54° SSW 23:29:18 10° ESE daylight
28 Oct - 01:26:21 10° W 01:33:34 27° SSW 01:44:30 10° SSE daylight
28 Oct - 17:50:12 10° SW 17:53:47 31° SSE 17:57:26 10° E daylight
28 Oct - 20:02:11 10° W 20:06:15 78° S 20:11:57 10° E daylight
28 Oct - 22:14:15 10° W 22:19:22 63° SSW 22:28:05 10° ESE daylight
29 Oct - 00:26:56 10° W 00:33:27 32° SSW 00:43:54 10° SE daylight
29 Oct - 02:44:46 10° SW 02:48:55 12° SSW 02:53:45 10° S visible
29 Oct - 16:51:36 10° SSW 16:54:53 20° SSE 16:57:50 10° ESE daylight
29 Oct - 19:03:24 10° WSW 19:07:17 66° S 19:11:56 10° E daylight
29 Oct - 21:15:37 10° W 21:20:05 72° S 21:27:10 10° ESE daylight
29 Oct - 23:27:54 10° W 23:33:37 39° SSW 23:43:05 10° SE daylight
30 Oct - 01:42:57 10° WSW 01:48:27 16° SSW 01:55:40 10° S daylight
30 Oct - 15:53:15 10° S 15:55:48 14° SSE 15:58:03 10° SE daylight
30 Oct - 18:04:27 10° WSW 18:08:22 49° SSE 18:12:22 10° E daylight
30 Oct - 20:16:56 10° W 20:20:59 78° S 20:26:41 10° E daylight
30 Oct - 22:29:06 10° W 22:34:06 46° SSW 22:42:17 10° SE daylight
31 Oct - 00:42:45 10° WSW 00:48:17 21° SSW 00:56:10 10° SSE daylight
31 Oct - 17:05:20 10° SW 17:09:29 35° SSE 17:13:05 10° E daylight
31 Oct - 19:18:05 10° W 19:21:59 77° S 19:26:40 10° E daylight
31 Oct - 21:30:24 10° W 21:34:48 55° SSW 21:41:39 10° ESE daylight
31 Oct - 23:43:16 10° WSW 23:48:25 25° SSW 23:56:09 10° SSE daylight
